Location: Moscow
(38.8570°N, 84.2291°W)
Time: 22:38:20
(UTC+00:00)

SPOT 1/Viking Rocket - Pass Details

Date: 15 November 2025
Orbit: 773 x 789 km, 98.2° (Epoch: 14 December)

Event Time Altitude Azimuth Distance (km) Brightness Sun altitude
Rises 23:15:39 0° 144° (SE) 3,250 6.5 -10.5°
Reaches altitude 10° 23:18:05 10° 137° (SE) 2,329 5.7 -11.0°
Maximum altitude 23:22:48 38° 70° (ENE) 1,183 4.0 -11.8°
Drops below altitude 10° 23:27:34 10° 4° (N) 2,352 5.8 -12.7°
Sets 23:30:02 0° 356° (N) 3,287 6.7 -13.2°
